sat.trackr.live / text

‹ back to catalog

HRC MONOBLOCK CAMERA

NORAD 66052 · 1998-067XR

DEBRIS UNKNOWN UNKNOWN

§ Identity

Operator
Country
CA
Launch date
1998-11-20
Launch site
TYMSC
Launch vehicle
Mass (kg)
RCS (m²)

Purposes: station

External: N2YO · Heavens-Above · Gunter

§ Orbital elements

Epoch: 2026-09-19T01:54:35.574624Z

Period
90.20 min
Inclination
51.6134°
Eccentricity
0.0004853
Mean motion
15.96483619 rev/d
Perigee alt
281.0 km
Apogee alt
287.4 km
Semi-major
6,662.3 km
B*
5.5611e-4
RAAN
150.4403°
Arg perigee
177.6725°
Mean anomaly
182.4306°
Rev number
5,287

§ Raw data

HRC MONOBLOCK CAMERA1 66052U 98067XR  26262.07957841  .00237527  33569-4  55611-3 0  99952 66052  51.6134 150.4403 0004853 177.6725 182.4306 15.96483619 52871

JSON: /api/v1/satellites/66052 · /tle

For live sub-satellite position, see the globe view (requires WebGL).

§ Visibility from observer

Set your observer location to see the next 7 days of passes ≥ 10°. The values pass through the URL so the page stays shareable.

No JS? Fill the form by hand. The geolocation button needs JavaScript.